Regional Weather Roundup
Issued by NWS New Orleans/Baton Rouge, LA

Home | Current Version | Previous Version | Text Only | Print | Product List | Glossary On
Versions: 1 2 3 4 5 6 7 8 9 10 11 12 13 14 15 16 17 18 19 20 21 22 23 24 25 26 27 28 29 30 31 32 33 34 35 36 37 38 39 40 41 42 43 44 45 46 47 48 49 50
000
ASUS44 KLIX 011812
RWRLIX
NEW ORLEANS REGIONAL WEATHER ROUNDUP
NATIONAL WEATHER SERVICE NEW ORLEANS LA
100 PM CDT SAT AUG 01 2015

NOTE: "FAIR" INDICATES FEW OR NO CLOUDS BELOW 12,000 FEET WITH NO
      SIGNIFICANT WEATHER AND/OR OBSTRUCTIONS TO VISIBILITY.
      SKY/WX - SKY CONDITION AND SIGNIFICANT WEATHER.
      TMP - AIR TEMPERATURE.     DP    - DEWPOINT TEMPERATURE.
      RH  - RELATIVE HUMIDITY.   PRES  - PRESSURE.
      HI  - HEAT INDEX.          WCI   - WIND CHILL INDEX.

*  THESE STATIONS ARE NOT NWS OR FAA STATIONS AND ARE NOT UNDER
   NWS QUALITY CONTROL.

LAZ038-040-048-061>063-065>067-069-011900-
SOUTHEAST LOUISIANA

CITY           SKY/WX    TMP DP  RH WIND       PRES   REMARKS
N.O. AUDUBON     N/A    N/A N/A N/A MISG        N/A
6HR MIN TEMP:  81; 6HR MAX TEMP:  92;

N.O. INTL ARPT MOSUNNY   88  69  53 NE10      29.93F
6HR MIN TEMP:  81; 6HR MAX TEMP:  88;

N.O. LAKEFRONT MOSUNNY   87  70  56 N6        29.94F
6HR MIN TEMP:  80; 6HR MAX TEMP:  87;

N.O. DOWNTOWN*   N/A     88  68  51 NW8       29.93F
6HR MIN TEMP:  81; 6HR MAX TEMP:  88;

RESERVE*         N/A     91  71  52 N10       29.93F HX  97
6HR MIN TEMP:  75; 6HR MAX TEMP:  91;

SLIDELL        SUNNY     91  68  46 E10       29.92F HX  95
6HR MIN TEMP:  69; 6HR MAX TEMP:  91;

BATON ROUGE    SUNNY     90  65  43 NE8       29.94F
6HR MIN TEMP:  73; 6HR MAX TEMP:  92;

BOOTHVILLE     PTSUNNY   88  74  63 VRB6      29.93S HX  96
6HR MIN TEMP:  85; 6HR MAX TEMP:  88;

BELLE CHASSE   MOSUNNY   89  71  55 NE8       29.92F HX  95
6HR MIN TEMP:  76; 6HR MAX TEMP:  90;

BOGALUSA*        N/A     91  62  37 E3        29.97S
6HR MIN TEMP:  70; 6HR MAX TEMP:  91;

GALLIANO*      NOT AVBL
NEW ROADS*       N/A    N/A N/A N/A NE6       29.95F
GONZALES*        N/A     89  67  47 N5        29.93F
6HR MIN TEMP:  73; 6HR MAX TEMP:  90;

HAMMOND*       SUNNY     93  61  33 N8        29.95F
HOUMA*         SUNNY     91  70  49 N9        29.92F HX  97
PORT FOURCHON* CLEAR     90  70  51 NW8       29.92F HX  95

$$

MSZ070-080>082-011900-
SOUTHERN MISSISSIPPI

CITY           SKY/WX    TMP DP  RH WIND       PRES   REMARKS
MCCOMB         SUNNY     92  64  39 N8        29.97F
6HR MIN TEMP:  72; 6HR MAX TEMP:  92;

GULFPORT       MOSUNNY   91  68  46 NE9       29.91F HX  95
6HR MIN TEMP:  74; 6HR MAX TEMP:  92;

BILOXI         SUNNY     91  72  54 NE9       29.91S HX  98
6HR MIN TEMP:  75; 6HR MAX TEMP:  91;

PASCAGOULA     SUNNY     90  72  55 N3        29.92R HX  97
6HR MIN TEMP:  72; 6HR MAX TEMP:  91;

STENNIS ARPT*  SUNNY     90  61  37 N8        29.93S

$$

COASTAL OBSERVATIONS
LAKE AND NEARSHORE STATIONS

STATION/POSITION TIME  TEMP    WIND        PRES    WAVE
                       AIR SEA DIR/SP/G            HT/PER
                 (UTC) (F)     (DEG/KT/KT) (MB)    (FT/S)
PASCAGOULA       1700   90      30/  6/  8 1012.6
WAVELAND YACHT   1700   85 85   20/  4/  6 1013.8
GRAND ISLE       1700   87 89  340/  6/  8 1013.4
SOUTHWEST PASS   1700   91 87  360/  9/ 11 1013.4
NEW CANAL        1700   81 87   10/  5/  7 1013.2
SHELL BEACH      1700   81 87  360/  7/ 10 1013.1

OFFSHORE STATIONS

STATION/POSITION TIME  TEMP    WIND        PRES    WAVE
                       AIR SEA DIR/SP/G            HT/PER
                 (UTC) (F)     (DEG/KT/KT) (MB)    (FT/S)
64 S DAUPHIN ISL 1750   85 88  350/ 10/ 12 1012.7    1/ 3

$$




USA.gov is the U.S. government's official web portal to all federal, state and local government web resources and services.